Temperature
5 6 6 6 6 7 7 9 10 12 13 15 15 15 15 14 14 13 13 13 14 14 15 15 15 16 16 16 15 15 15 14 13 13 12 11 11 10 10 10 10 10 9 9
4 6 6 6 7 8 8 9 10 11 12 15 15 14 14 14 13 13 13 13 14 14 14 15 15 15 15 15 15 15 14 14 13 12 11 11 10 10 10 10 9 9 9 9
4 5 5 6 8 9 9 10 11 11 12 13 13 13 14 13 13 13 13 13 14 14 15 15 15 15 15 15 15 14 14 13 13 12 11 11 10 10 9 9 9 9 9 8
3 4 4 8 9 9 9 10 10 11 12 12 13 13 13 13 13 13 13 13 14 14 14 15 15 15 15 14 14 14 13 13 12 12 11 10 10 9 9 9 9 8 8 8
3 4 5 7 8 8 9 9 10 10 11 11 12 12 13 13 13 13 13 13 14 14 14 15 15 15 15 14 14 13 13 13 12 12 11 10 10 9 9 9 8 8 8 8
3 3 5 8 8 9 9 9 10 10 10 11 11 11 13 12 12 12 13 13 13 14 14 14 14 14 14 14 13 13 13 13 12 11 11 10 10 9 9 8 8 8 7 7
3 4 6 7 8 8 7 8 9 9 9 10 10 10 11 11 11 12 12 12 13 13 14 14 14 14 14 14 14 13 13 12 11 11 11 10 10 9 8 8 7 7 7 7
3 3 5 7 7 7 8 8 8 8 9 9 9 9 9 10 10 11 11 12 12 13 13 14 14 14 14 14 13 13 12 11 11 10 10 9 9 8 8 7 7 7 6 6
3 5 7 6 6 7 6 7 7 7 8 8 8 8 9 9 9 10 11 11 12 12 13 13 13 13 13 13 13 12 12 11 10 10 9 9 9 8 7 7 6 6 6 6
3 4 5 5 5 5 6 6 6 7 7 7 7 8 8 8 9 9 10 11 11 12 13 13 13 13 13 13 13 12 11 11 10 9 9 8 8 8 7 7 6 6 6 6
3 4 5 5 5 5 5 5 6 6 6 7 7 7 7 8 8 8 9 10 11 11 12 12 13 12 12 12 12 12 11 10 10 9 8 8 7 7 7 6 6 6 6 6
3 4 4 5 5 5 5 5 5 5 6 6 7 7 7 7 7 8 9 10 10 11 11 12 12 12 12 12 12 11 11 10 9 9 8 7 7 6 6 6 5 5 5 5
3 3 3 3 3 4 4 4 5 5 5 6 6 7 7 7 7 7 8 9 10 10 11 11 12 12 12 12 11 11 11 10 9 8 8 7 7 6 6 5 5 4 4 4
2 2 2 3 3 3 4 4 4 5 5 5 6 6 6 6 6 7 8 9 10 10 10 11 11 11 11 11 11 10 10 9 9 8 7 7 7 6 6 5 4 4 3 3
2 2 2 2 3 3 3 4 4 4 5 5 5 5 6 6 6 7 8 9 9 9 10 10 10 11 10 10 10 10 9 9 8 7 7 6 6 6 5 5 4 4 3 2
1 1 1 2 2 2 3 3 4 4 4 5 5 5 5 6 6 7 7 8 9 9 10 10 10 10 10 9 9 9 8 8 8 7 6 6 5 5 5 4 4 3 3 2
0 1 1 2 2 2 2 3 3 4 4 4 5 5 5 5 5 6 6 7 8 9 9 10 10 10 9 9 9 8 8 7 7 6 6 5 5 5 4 4 3 3 2 2
-0 0 1 1 1 2 2 3 3 4 4 4 5 4 5 5 5 6 6 6 6 7 7 8 9 9 8 8 8 8 7 7 6 6 5 5 4 4 4 3 2 2 1 1
-1 -0 0 0 1 1 2 3 3 4 4 4 4 4 4 5 5 5 5 6 6 6 6 7 8 8 8 7 7 7 7 6 6 5 5 4 4 3 3 2 2 1 1 0
-1 -0 0 0 1 1 2 3 3 3 4 4 4 4 4 4 4 4 4 5 5 6 7 7 7 7 7 7 7 7 6 6 5 5 4 4 3 3 2 2 1 1 0 0
-1 -1 -0 0 1 2 2 3 3 4 4 3 4 4 4 4 4 4 4 4 4 5 6 6 6 6 6 6 6 6 5 5 5 4 4 3 3 2 2 1 1 0 0 -0
-2 -1 -0 0 1 1 2 3 3 3 3 3 3 4 3 3 3 3 4 4 5 5 5 5 5 6 5 5 5 5 5 4 4 4 3 3 2 2 1 1 0 -0 -1 -1
-3 -2 -1 -0 0 1 1 2 2 3 3 3 3 3 3 3 3 4 3 3 4 4 5 5 5 5 5 5 5 4 4 4 3 3 3 2 2 1 1 0 -0 -1 -1 -2
-3 -2 -1 -1 -0 0 0 0 1 2 2 2 2 3 3 2 2 3 3 3 3 4 4 4 4 4 4 4 4 4 3 3 3 2 2 1 1 0 -0 -1 -1 -2 -2 -2
-4 -3 -2 -2 -1 -1 -1 -0 0 0 1 1 1 1 1 2 3 3 3 2 3 3 3 3 3 3 3 3 3 3 2 2 2 1 1 1 0 -1 -1 -1 -2 -2 -2 -3
-5 -4 -4 -3 -3 -2 -1 -1 -1 -1 -0 -0 -0 0 0 1 1 2 2 2 2 2 2 2 2 2 2 2 2 1 1 1 1 0 -0 -0 -1 -1 -2 -2 -2 -3 -3 -4
-5 -5 -5 -4 -4 -3 -2 -2 -2 -2 -1 -1 -1 -1 -1 -0 0 1 1 1 1 1 1 1 1 1 1 1 1 0 0 -0 -0 -1 -1 -1 -2 -2 -2 -3 -3 -4 -4 -4
Wind_Speed
13 14 14 16 17 17 18 19 18 19 19 15 11 8 7 5 5 6 7 9 10 10 10 10 10 10 11 11 12 13 15 15 15 15 14 14 14 14 13 13 13 13 13 12
13 12 13 17 20 21 21 22 23 20 20 15 11 8 7 6 6 7 8 8 9 9 10 10 11 11 11 12 12 13 14 14 13 14 14 14 13 13 13 13 13 12 12 12
10 10 10 13 17 20 20 22 23 22 18 10 11 12 10 8 7 8 8 7 8 9 10 11 11 12 12 12 12 13 13 13 13 14 14 14 13 14 14 13 13 12 12 12
6 7 10 8 8 15 19 20 18 18 13 13 14 13 12 9 8 8 7 7 8 9 9 9 10 11 11 12 13 13 13 13 14 14 14 14 14 14 13 12 12 12 11 11
5 8 11 9 8 13 15 16 15 16 15 13 11 11 13 12 10 10 9 8 8 8 8 10 11 12 13 13 13 13 13 14 14 15 15 15 15 14 12 12 11 10 10 11
7 8 9 8 5 8 11 14 10 12 13 12 9 13 14 11 11 11 9 7 6 6 7 10 12 13 14 14 14 14 14 14 14 14 15 15 15 13 11 11 11 10 9 9
13 10 10 8 6 4 9 8 6 10 11 10 13 15 13 11 12 11 10 7 6 7 8 11 13 14 15 15 15 13 13 13 14 14 14 15 13 12 12 11 11 10 9 8
11 12 10 4 3 6 6 8 8 9 11 13 15 16 13 12 11 11 9 7 7 7 8 9 13 15 15 14 13 13 14 14 14 14 12 12 14 12 12 12 11 10 9 8
8 10 9 7 8 10 11 12 12 11 12 13 14 16 15 14 12 11 10 8 7 8 8 9 12 14 15 14 14 15 15 15 14 13 12 13 14 14 12 11 9 9 8 8
12 14 16 16 16 15 15 15 15 14 13 13 14 15 15 13 12 10 9 8 7 9 9 10 11 13 12 14 16 17 16 15 14 14 13 12 10 10 10 10 10 9 9 8
17 18 18 18 16 16 17 17 17 16 15 14 14 15 14 13 12 10 9 8 9 10 11 11 11 12 13 15 17 17 16 15 14 13 13 12 10 8 9 8 9 10 9 9
17 17 15 19 19 19 20 20 19 18 17 15 14 14 13 12 11 10 9 9 10 11 11 11 12 12 14 16 18 18 16 15 13 12 11 11 11 8 8 7 9 9 9 9
22 22 22 24 24 23 22 21 20 18 18 16 14 12 11 10 9 9 10 11 12 12 12 12 13 13 15 17 18 18 17 16 13 12 12 12 11 11 10 9 11 11 11 11
20 20 23 22 22 21 21 20 17 16 15 13 11 10 8 8 8 9 10 11 11 11 12 13 14 14 15 17 17 17 16 15 14 13 12 12 11 11 11 11 10 7 8 11
20 20 22 21 21 20 18 16 14 13 12 11 9 8 8 8 8 8 7 8 10 11 12 14 15 14 15 17 17 17 15 13 13 12 11 11 11 10 10 10 10 9 8 8
18 19 20 20 21 20 17 15 14 14 12 10 8 8 7 6 5 5 7 9 12 13 14 15 15 15 16 17 17 14 13 16 15 13 12 11 11 10 10 10 9 9 8 8
18 18 17 18 18 18 17 16 14 13 11 10 8 6 5 4 4 5 6 8 9 11 13 14 15 16 16 17 16 13 14 15 16 13 11 11 10 10 10 9 8 8 7 7
18 19 18 18 17 17 16 15 14 12 11 9 6 6 7 7 7 7 8 9 10 10 10 12 15 16 16 16 15 13 13 13 12 12 11 10 10 9 9 9 9 8 7 7
15 17 17 17 16 15 14 14 12 10 8 7 7 8 7 7 7 9 11 12 14 13 11 13 17 17 16 16 15 13 14 14 12 11 10 13 11 9 9 8 8 8 7 7
14 14 14 13 13 12 12 11 9 7 7 8 8 8 8 8 9 11 12 10 8 9 13 16 17 15 15 16 15 13 14 14 13 12 11 10 10 9 8 8 8 7 7 6
13 12 11 10 9 8 7 7 7 7 7 9 10 10 10 10 11 11 12 10 8 12 15 17 14 13 13 14 15 13 13 12 12 11 10 10 9 9 8 8 7 6 6 5
12 10 9 6 4 3 2 2 5 7 8 8 9 11 11 11 11 10 8 8 11 14 13 12 11 14 16 16 12 12 12 12 11 10 9 9 9 9 8 7 7 6 5 5
11 9 6 4 2 1 3 3 5 7 9 10 11 11 11 10 9 10 9 8 10 14 12 11 16 21 20 13 11 12 12 11 10 9 9 8 8 8 7 7 6 5 5 4
9 7 5 3 3 5 5 6 7 7 9 9 8 9 10 10 8 7 9 14 15 16 12 16 22 22 18 11 11 11 10 10 9 9 9 8 7 7 6 6 5 5 4 4
8 6 5 4 4 4 6 8 10 11 11 10 11 10 7 7 9 11 12 14 17 16 13 17 20 18 12 10 10 10 9 9 9 9 8 7 7 6 6 5 5 4 4 4
7 5 4 4 4 4 5 6 7 8 9 10 10 9 9 10 12 12 12 14 16 16 13 11 12 12 10 10 10 10 9 10 9 8 8 7 7 6 5 5 5 4 3 3
6 5 4 5 6 5 6 7 8 8 8 10 11 10 10 11 11 12 13 12 12 11 11 10 9 9 10 10 10 9 8 8 7 7 7 6 5 5 5 5 3 3 3 3
Wind_Direction
271 271 263 252 241 231 226 223 227 234 239 242 250 253 248 234 217 207 198 194 193 191 187 181 177 176 175 174 174 174 176 180 183 182 180 179 178 177 177 177 177 177 177 179
273 272 263 258 243 234 232 231 234 242 246 249 254 261 258 238 215 212 206 201 199 193 187 185 181 176 172 171 171 172 174 176 174 173 172 173 172 170 170 170 170 170 174 175
267 278 277 255 234 226 224 227 229 235 240 244 245 243 245 236 220 221 218 211 203 200 196 190 184 177 174 170 167 169 170 169 169 169 169 170 167 167 169 169 167 169 172 174
262 264 239 248 235 230 233 233 233 241 251 243 247 250 251 242 241 240 233 225 217 208 202 192 179 172 166 163 166 167 167 168 168 168 167 167 167 169 169 167 167 168 171 173
236 246 260 267 250 229 226 235 235 241 247 251 255 252 247 242 254 252 241 236 228 214 201 184 175 167 162 164 166 168 170 170 170 168 166 167 168 168 165 163 164 165 166 168
228 237 241 254 256 247 227 244 241 240 246 252 244 239 244 259 262 262 258 246 231 202 190 181 173 165 164 167 171 175 173 170 168 167 167 168 168 163 159 159 158 155 156 163
230 241 254 279 289 205 206 243 265 247 247 247 237 243 263 267 262 259 255 244 218 195 190 184 171 168 170 172 178 173 164 161 163 166 166 164 160 156 154 151 148 149 148 153
223 236 246 286 222 207 257 297 303 280 262 255 253 259 269 265 260 255 250 237 213 198 193 182 173 172 174 177 169 159 156 157 160 161 158 157 154 151 151 149 148 149 148 148
233 245 279 279 265 277 292 291 295 292 284 271 262 260 262 263 259 252 241 228 214 199 187 183 180 179 177 169 158 155 154 155 155 154 154 156 155 152 152 153 154 155 156 156
259 262 272 276 280 283 284 289 295 295 290 281 269 267 266 263 256 251 245 227 210 195 188 185 184 184 175 160 157 155 154 153 153 152 151 151 151 153 156 161 160 159 160 159
258 270 278 274 274 281 288 290 291 292 288 281 276 272 267 261 254 247 242 227 210 201 195 188 179 175 166 160 158 155 152 151 152 151 149 148 146 149 155 161 165 164 164 162
258 265 271 278 284 285 285 286 286 287 287 284 274 271 267 260 253 243 233 220 207 202 194 184 175 170 167 164 161 155 153 154 153 151 148 145 138 119 89 114 122 127 137 147
260 269 272 276 280 281 279 282 282 279 279 281 278 272 267 261 252 240 227 213 203 196 187 179 173 170 168 165 163 160 157 155 153 152 150 149 146 141 130 106 105 116 128 133
265 270 272 272 275 278 278 280 280 278 276 275 274 270 262 257 248 233 219 209 197 186 180 175 170 170 167 164 160 157 153 150 150 151 152 151 149 146 144 142 138 128 127 132
267 265 267 272 276 277 277 277 276 274 273 273 270 260 250 241 235 227 209 190 177 174 173 169 165 164 163 159 156 153 150 150 148 146 145 144 143 141 140 139 138 137 135 135
276 272 268 268 270 273 274 272 270 269 268 267 263 256 245 233 221 201 185 176 171 172 170 165 163 160 158 154 149 147 146 142 142 142 141 141 142 142 142 143 143 146 150 149
277 275 273 272 269 269 267 266 265 265 264 260 255 242 215 192 178 171 170 170 166 163 162 161 156 151 151 150 146 143 141 140 137 137 141 144 145 146 146 146 148 150 152 156
272 271 271 272 272 271 269 266 262 258 255 252 228 204 192 183 177 168 157 147 139 137 144 148 145 145 146 146 142 139 140 142 143 141 141 142 142 143 143 144 147 146 146 153
281 276 273 270 267 265 264 262 256 250 241 220 199 191 187 179 166 154 148 145 144 144 146 143 140 141 141 140 137 136 137 137 135 136 136 138 137 139 142 145 148 149 151 155
293 287 281 277 271 263 258 254 242 233 217 192 178 171 164 158 150 145 141 139 144 142 142 141 138 137 136 137 132 135 136 137 137 137 138 140 140 141 143 144 147 149 153 157
305 298 289 282 276 267 256 239 217 202 185 175 168 159 151 145 144 141 135 129 122 129 135 134 134 135 134 135 129 132 134 135 137 139 140 141 140 141 142 145 147 150 152 155
318 311 303 296 288 281 263 205 176 162 153 149 144 141 139 137 135 125 113 126 132 133 133 132 132 132 134 130 128 130 132 133 134 136 138 140 142 143 145 147 149 151 153 157
324 324 325 327 332 41 69 101 124 136 138 139 141 142 141 138 138 134 125 127 132 130 128 129 131 131 128 124 126 128 130 131 133 134 136 137 139 141 144 146 148 151 156 160
335 338 345 4 59 84 85 85 94 103 108 110 113 120 126 125 112 103 116 125 127 123 121 126 129 128 122 121 122 124 126 128 128 129 129 129 131 134 139 144 147 152 158 163
344 354 12 43 67 83 93 96 95 95 97 97 96 95 97 104 115 119 119 122 122 117 117 122 123 120 117 117 119 121 123 125 126 127 128 130 132 135 139 144 150 154 161 168
356 8 24 43 64 90 100 103 103 105 105 103 97 94 95 99 106 111 113 115 114 112 113 116 116 111 110 112 113 115 117 120 118 119 125 127 132 136 140 144 149 158 165 175
10 24 44 56 61 74 88 97 103 105 108 111 108 103 103 105 106 109 110 111 110 108 107 107 107 106 108 109 110 111 112 114 116 119 122 126 132 136 143 148 154 160 171 182
Height
1382 1379 1378 1375 1372 1372 1370 1363 1360 1350 1348 1344 1345 1345 1347 1349 1351 1352 1354 1356 1358 1361 1365 1368 1372 1376 1380 1384 1389 1393 1398 1402 1407 1412 1417 1422 1427 1432 1437 1441 1446 1451 1455 1459
1379 1373 1370 1367 1362 1360 1360 1358 1354 1350 1346 1343 1344 1346 1346 1347 1349 1350 1351 1353 1355 1358 1361 1365 1368 1372 1376 1381 1385 1389 1394 1398 1403 1408 1413 1418 1422 1427 1432 1437 1442 1447 1451 1455
1375 1370 1368 1360 1350 1348 1348 1346 1346 1345 1341 1344 1345 1344 1344 1345 1347 1348 1349 1351 1353 1355 1358 1361 1365 1369 1373 1377 1382 1386 1390 1395 1399 1404 1409 1414 1419 1424 1428 1433 1438 1442 1447 1451
1376 1373 1368 1344 1340 1341 1341 1340 1341 1340 1340 1341 1341 1342 1342 1343 1344 1345 1347 1348 1350 1352 1355 1359 1362 1366 1370 1374 1378 1382 1387 1391 1396 1400 1405 1410 1415 1420 1425 1430 1434 1438 1443 1447
1374 1365 1351 1342 1340 1339 1338 1336 1337 1338 1338 1339 1340 1339 1337 1338 1340 1342 1344 1346 1347 1349 1352 1355 1359 1362 1366 1371 1375 1379 1383 1388 1392 1397 1402 1407 1411 1417 1421 1426 1431 1435 1439 1443
1369 1362 1346 1334 1333 1333 1336 1333 1332 1333 1335 1336 1337 1336 1330 1333 1336 1338 1340 1342 1344 1345 1348 1351 1355 1359 1363 1367 1371 1375 1380 1385 1389 1394 1399 1403 1408 1413 1418 1423 1427 1432 1436 1440
1363 1355 1338 1333 1332 1332 1337 1329 1328 1329 1330 1333 1333 1330 1330 1332 1332 1333 1335 1337 1339 1341 1344 1347 1351 1355 1359 1363 1367 1372 1377 1382 1387 1391 1396 1401 1406 1411 1415 1420 1424 1428 1432 1436
1355 1351 1340 1331 1332 1332 1329 1327 1326 1325 1326 1326 1326 1326 1327 1327 1327 1328 1329 1331 1333 1336 1339 1343 1347 1351 1355 1359 1364 1369 1374 1379 1384 1389 1394 1399 1403 1408 1412 1417 1421 1425 1429 1432
1345 1338 1330 1330 1330 1329 1329 1326 1324 1323 1322 1321 1320 1321 1321 1321 1321 1323 1324 1326 1328 1331 1335 1339 1343 1348 1351 1356 1361 1365 1371 1376 1381 1386 1391 1396 1400 1405 1409 1414 1418 1422 1425 1428
1341 1332 1330 1328 1327 1326 1325 1323 1321 1320 1319 1317 1316 1315 1315 1315 1315 1317 1318 1320 1323 1326 1330 1333 1339 1344 1348 1353 1357 1362 1367 1372 1378 1383 1388 1393 1398 1402 1406 1410 1414 1418 1421 1425
1334 1329 1327 1322 1322 1321 1320 1318 1317 1315 1313 1312 1310 1309 1308 1308 1308 1310 1312 1314 1318 1321 1325 1329 1334 1339 1344 1349 1354 1359 1364 1369 1375 1380 1385 1390 1395 1400 1405 1409 1412 1415 1418 1421
1326 1324 1324 1318 1317 1317 1315 1312 1311 1309 1306 1305 1304 1302 1301 1301 1301 1303 1305 1308 1311 1315 1320 1324 1329 1334 1340 1345 1350 1355 1360 1366 1371 1377 1382 1387 1392 1397 1402 1407 1410 1414 1417 1420
1321 1319 1318 1313 1311 1310 1308 1305 1304 1302 1300 1298 1296 1295 1294 1293 1294 1295 1298 1301 1305 1309 1314 1319 1324 1330 1335 1341 1347 1352 1356 1362 1368 1373 1379 1384 1389 1394 1398 1403 1407 1411 1414 1417
1314 1313 1308 1305 1303 1301 1300 1298 1297 1294 1292 1291 1290 1289 1288 1287 1288 1289 1291 1295 1299 1304 1309 1314 1320 1325 1331 1337 1343 1349 1354 1360 1365 1371 1376 1382 1387 1391 1396 1399 1403 1407 1411 1414
1305 1304 1301 1297 1295 1293 1292 1291 1288 1286 1285 1284 1284 1283 1282 1282 1282 1284 1286 1290 1294 1299 1304 1309 1315 1322 1328 1334 1340 1346 1352 1357 1363 1369 1375 1380 1385 1389 1394 1398 1401 1404 1408 1411
1296 1294 1292 1289 1286 1285 1284 1283 1281 1279 1279 1278 1278 1277 1277 1278 1278 1280 1282 1286 1290 1294 1299 1305 1311 1318 1325 1331 1338 1344 1350 1356 1361 1367 1372 1378 1383 1387 1391 1395 1399 1402 1405 1408
1289 1285 1283 1281 1278 1277 1277 1276 1274 1273 1273 1272 1272 1273 1273 1274 1275 1277 1280 1283 1287 1292 1297 1303 1309 1316 1323 1329 1336 1342 1348 1354 1360 1366 1371 1376 1381 1385 1389 1393 1397 1400 1403 1406
1280 1278 1276 1274 1272 1270 1268 1268 1268 1267 1267 1267 1268 1269 1269 1270 1272 1274 1277 1281 1286 1291 1296 1302 1308 1315 1322 1329 1335 1341 1347 1353 1359 1364 1370 1375 1380 1384 1388 1391 1395 1398 1400 1403
1271 1268 1266 1265 1263 1262 1261 1261 1261 1261 1262 1262 1264 1265 1267 1268 1270 1273 1276 1280 1284 1289 1295 1302 1308 1315 1321 1328 1334 1341 1347 1352 1358 1364 1369 1374 1378 1382 1386 1389 1392 1395 1398 1400
1262 1259 1257 1255 1255 1255 1254 1254 1255 1256 1257 1258 1260 1262 1264 1267 1270 1273 1276 1280 1284 1289 1295 1302 1309 1315 1322 1328 1335 1341 1346 1352 1357 1362 1367 1372 1376 1380 1384 1387 1390 1392 1395 1397
1255 1252 1250 1248 1248 1248 1248 1249 1250 1251 1252 1255 1257 1259 1262 1266 1270 1273 1276 1281 1286 1292 1297 1303 1309 1316 1322 1329 1335 1341 1346 1352 1357 1362 1366 1370 1374 1378 1381 1384 1387 1390 1392 1394
1251 1248 1245 1244 1243 1243 1244 1245 1246 1248 1250 1253 1255 1258 1262 1266 1270 1274 1278 1282 1287 1293 1299 1305 1311 1317 1323 1329 1335 1341 1346 1351 1356 1361 1365 1369 1372 1376 1379 1382 1385 1387 1389 1391
1249 1246 1243 1242 1242 1241 1242 1243 1245 1247 1249 1252 1255 1258 1262 1266 1270 1274 1279 1285 1290 1296 1301 1306 1313 1319 1325 1330 1336 1341 1346 1351 1356 1360 1364 1367 1371 1374 1377 1380 1382 1385 1387 1388
1247 1245 1243 1242 1241 1241 1242 1243 1245 1248 1250 1253 1257 1260 1264 1268 1272 1277 1281 1287 1292 1298 1303 1309 1315 1320 1326 1331 1336 1341 1346 1351 1355 1359 1363 1366 1370 1373 1376 1378 1380 1382 1384 1385
1248 1245 1243 1242 1242 1243 1244 1245 1247 1249 1252 1255 1259 1263 1267 1271 1274 1278 1284 1289 1295 1300 1305 1311 1317 1322 1328 1333 1338 1342 1347 1351 1355 1358 1362 1365 1368 1371 1374 1376 1378 1380 1381 1382
1250 1247 1245 1244 1244 1245 1246 1247 1249 1252 1254 1257 1262 1266 1270 1274 1278 1282 1287 1292 1298 1303 1308 1313 1319 1325 1329 1334 1339 1343 1347 1351 1354 1358 1361 1364 1367 1369 1371 1373 1375 1376 1378 1379
1252 1250 1248 1247 1247 1248 1249 1250 1252 1255 1258 1261 1264 1269 1273 1277 1281 1285 1290 1295 1300 1305 1310 1316 1321 1326 1331 1335 1339 1344 1347 1351 1354 1357 1360 1363 1365 1367 1369 1370 1372 1373 1374 1375